EW1613 Weather Reports


Display with metric or nautical units.
time (UTC)temp
F
wind
direction
speed
MPH
gust
MPH
rain 1hr
in
rain 24hr
in
rain mn
in
humidity
%
barometer
mb
20260502204441 64 187 0.0 0.0 0.00 0.00 0.00 51 1021.1
20260502203937 65 187 0.0 0.0 0.00 0.00 0.00 51 1021.1
20260502203451 65 188 0.0 0.0 0.00 0.00 0.00 51 1021.1
20260502202959 65 187 0.0 0.0 0.00 0.00 0.00 50 1021.1
20260502202455 66 187 0.0 0.0 0.00 0.00 0.00 49 1021.1
20260502201931 66 187 0.0 0.0 0.00 0.00 0.00 49 1021.1
20260502201438 66 188 0.0 2.0 0.00 0.00 0.00 48 1021.1
20260502200935 66 188 0.0 3.0 0.00 0.00 0.00 48 1021.2
20260502200449 66 188 1.0 3.0 0.00 0.00 0.00 48 1021.1
20260502195935 66 188 2.0 3.0 0.00 0.00 0.00 47 1021.1
20260502195451 67 190 1.0 3.0 0.00 0.00 0.00 47 1021.1
20260502194943 67 190 1.0 4.0 0.00 0.00 0.00 47 1021.1
20260502194433 67 190 2.0 4.0 0.00 0.00 0.00 47 1021.1
20260502193945 67 192 2.0 3.0 0.00 0.00 0.00 47 1021.1
20260502193440 67 194 1.0 3.0 0.00 0.00 0.00 47 1021.1
20260502192928 68 194 1.0 3.0 0.00 0.00 0.00 47 1021.1
20260502192440 68 194 1.0 2.0 0.00 0.00 0.00 46 1021.0
20260502191934 68 194 0.0 3.0 0.00 0.00 0.00 46 1021.0
20260502191440 68 194 2.0 3.0 0.00 0.00 0.00 45 1021.0
20260502190935 69 196 1.0 3.0 0.00 0.00 0.00 45 1021.0
20260502190451 69 198 1.0 3.0 0.00 0.00 0.00 45 1020.9
20260502185941 69 200 1.0 2.0 0.00 0.00 0.00 45 1020.8
20260502185439 69 200 1.0 2.0 0.00 0.00 0.00 44 1020.8
20260502184953 70 201 1.0 3.0 0.00 0.00 0.00 44 1020.8
20260502184442 70 201 1.0 3.0 0.00 0.00 0.00 44 1020.8
20260502183935 70 201 1.0 4.0 0.00 0.00 0.00 44 1020.8
20260502183451 70 202 1.0 4.0 0.00 0.00 0.00 43 1020.8
20260502182941 71 206 1.0 2.0 0.00 0.00 0.00 43 1020.7
20260502182455 71 209 1.0 2.0 0.00 0.00 0.00 42 1020.7
20260502181930 71 211 0.0 3.0 0.00 0.00 0.00 42 1020.7
20260502181440 72 212 1.0 3.0 0.00 0.00 0.00 42 1020.7
20260502180957 72 214 1.0 4.0 0.00 0.00 0.00 41 1020.7
20260502180453 72 241 1.0 4.0 0.00 0.00 0.00 41 1020.6
20260502170430 75 212 3.0 7.0 0.00 0.00 0.00 37 1020.6
20260502163939 76 229 5.0 11.0 0.00 0.00 0.00 36 1020.8
20260502163436 76 242 7.0 11.0 0.00 0.00 0.00 35 1020.8
20260502162926 76 196 6.0 11.0 0.00 0.00 0.00 35 1020.9
20260502162443 76 238 4.0 10.0 0.00 0.00 0.00 35 1020.9
20260502161931 76 238 5.0 9.0 0.00 0.00 0.00 35 1021.0
20260502161427 77 226 4.0 8.0 0.00 0.00 0.00 34 1021.0
20260502160933 77 252 4.0 8.0 0.00 0.00 0.00 35 1021.1
20260502160431 77 209 5.0 9.0 0.00 0.00 0.00 34 1021.1
20260502151442 77 186 2.0 10.0 0.00 0.00 0.00 33 1021.5
20260502150929 77 179 5.0 12.0 0.00 0.00 0.00 34 1021.6
20260502150443 77 225 7.0 12.0 0.00 0.00 0.00 34 1021.6
20260502130451 77 238 5.0 11.0 0.00 0.00 0.00 33 1023.1
20260502123446 76 238 10.0 18.0 0.00 0.00 0.00 33 1023.4
20260502122933 77 230 5.0 8.0 0.00 0.00 0.00 33 1023.5
20260502122431 76 214 3.0 14.0 0.00 0.00 0.00 34 1023.5
20260502121947 76 213 5.0 14.0 0.00 0.00 0.00 34 1023.6
20260502121435 76 242 8.0 12.0 0.00 0.00 0.00 33 1023.7
20260502120930 76 277 1.0 9.0 0.00 0.00 0.00 34 1023.7
20260502120439 76 262 4.0 15.0 0.00 0.00 0.00 34 1023.8
20260502115443 76 223 8.0 14.0 0.00 0.00 0.00 34 1023.9
20260502114940 76 220 4.0 11.0 0.00 0.00 0.00 34 1024.0
20260502114427 76 250 6.0 11.0 0.00 0.00 0.00 33 1024.1
20260502113942 76 240 5.0 12.0 0.00 0.00 0.00 33 1024.1
20260502113432 76 239 7.0 12.0 0.00 0.00 0.00 34 1024.2
20260502112927 76 228 4.0 11.0 0.00 0.00 0.00 34 1024.3
20260502112435 76 240 5.0 8.0 0.00 0.00 0.00 33 1024.3
20260502111952 75 268 1.0 12.0 0.00 0.00 0.00 33 1024.4
20260502111445 75 211 4.0 12.0 0.00 0.00 0.00 33 1024.5
20260502110933 76 233 7.0 11.0 0.00 0.00 0.00 34 1024.5
20260502110429 75 190 3.0 7.0 0.00 0.00 0.00 33 1024.6
20260502110002 75 206 3.0 11.0 0.00 0.00 0.00 35 1024.7
20260502105429 75 205 4.0 15.0 0.00 0.00 0.00 34 1024.8
20260502104943 75 202 6.0 15.0 0.00 0.00 0.00 34 1024.8
20260502104436 74 280 1.0 10.0 0.00 0.00 0.00 34 1024.9
20260502103953 74 243 3.0 11.0 0.00 0.00 0.00 35 1025.0
20260502103507 74 210 4.0 11.0 0.00 0.00 0.00 35 1025.0
20260502102935 74 246 3.0 10.0 0.00 0.00 0.00 34 1025.1
20260502102431 74 198 5.0 13.0 0.00 0.00 0.00 35 1025.1
20260502101946 74 238 7.0 13.0 0.00 0.00 0.00 35 1025.2
20260502101435 73 243 1.0 12.0 0.00 0.00 0.00 35 1025.3
20260502100930 73 250 7.0 12.0 0.00 0.00 0.00 35 1025.4
20260502100507 73 226 3.0 12.0 0.00 0.00 0.00 36 1025.4
20260502091432 73 242 1.0 7.0 0.00 0.00 0.00 37 1025.8
20260502090948 73 222 2.0 4.0 0.00 0.00 0.00 38 1025.8
20260502090503 72 192 0.0 1.0 0.00 0.00 0.00 39 1025.8
20260502071430 63 360 0.0 0.0 0.00 0.00 0.00 52 1026.6
20260502070926 63 355 0.0 0.0 0.00 0.00 0.00 54 1026.6
20260502070442 62 355 0.0 0.0 0.00 0.00 0.00 56 1026.7
20260502065958 61 355 0.0 0.0 0.00 0.00 0.00 55 1026.7
20260502065452 60 355 0.0 1.0 0.00 0.00 0.00 56 1026.7
20260502064941 60 355 0.0 2.0 0.00 0.00 0.00 58 1026.8
20260502064437 60 360 1.0 2.0 0.00 0.00 0.00 58 1026.7
20260502063945 59 360 0.0 1.0 0.00 0.00 0.00 59 1026.8
20260502063439 59 360 0.0 2.0 0.00 0.00 0.00 60 1026.8
20260502062951 58 360 0.0 3.0 0.00 0.00 0.00 61 1026.8
20260502062441 58 338 0.0 3.0 0.00 0.00 0.00 62 1026.9
20260502061959 57 331 0.0 3.0 0.00 0.00 0.00 64 1026.9
20260502061454 57 331 0.0 3.0 0.00 0.00 0.00 65 1026.9
20260502061006 56 327 0.0 2.0 0.00 0.00 0.00 67 1026.8
20260502060433 55 325 0.0 2.0 0.00 0.00 0.00 68 1026.9
20260502055945 55 324 1.0 4.0 0.00 0.00 0.00 69 1026.9
20260502055430 54 323 2.0 4.0 0.00 0.00 0.00 69 1026.9
20260502054945 54 319 1.0 2.0 0.00 0.00 0.00 70 1026.9
20260502054440 54 320 0.0 2.0 0.00 0.00 0.00 70 1026.8
20260502053930 53 319 0.0 3.0 0.00 0.00 0.00 70 1026.8
20260502053445 53 318 0.0 3.0 0.00 0.00 0.00 69 1026.8
20260502052934 52 317 1.0 4.0 0.00 0.00 0.00 69 1026.9
20260502052430 52 320 1.0 4.0 0.00 0.00 0.00 69 1026.9
20260502051945 52 320 1.0 4.0 0.00 0.00 0.00 69 1026.9
20260502051430 51 324 0.0 3.0 0.00 0.00 0.00 69 1027.0
20260502050945 51 326 0.0 3.0 0.00 0.00 0.00 69 1026.9
20260502050442 51 327 0.0 0.0 0.00 0.00 0.00 70 1027.0
20260502045932 50 327 0.0 0.0 0.00 0.00 0.00 70 1027.0
20260502045427 50 327 0.0 1.0 0.00 0.00 0.00 71 1026.9
20260502044942 50 327 0.0 1.0 0.00 0.00 0.00 71 1026.9
20260502044450 49 327 0.0 0.0 0.00 0.00 0.00 71 1027.0
20260502044010 49 327 0.0 0.0 0.00 0.00 0.00 71 1026.9
20260502043439 49 327 0.0 2.0 0.00 0.00 0.00 71 1026.9
20260502042927 49 327 0.0 2.0 0.00 0.00 0.00 71 1026.9
20260502042443 49 327 0.0 1.0 0.00 0.00 0.00 72 1026.9
20260502042000 49 327 0.0 0.0 0.00 0.00 0.00 71 1026.8
20260502041429 49 327 0.0 0.0 0.00 0.00 0.00 71 1026.8
20260502040941 49 327 0.0 0.0 0.00 0.00 0.00 71 1026.8
20260502040435 49 327 0.0 1.0 0.00 0.00 0.00 70 1026.9
20260502035941 49 327 0.0 1.0 0.00 0.00 0.00 70 1026.9
20260502035436 49 327 0.0 1.0 0.00 0.00 0.00 70 1026.9
20260502034928 49 327 0.0 1.0 0.00 0.00 0.00 70 1026.8
20260502034443 50 327 0.0 1.0 0.00 0.00 0.00 70 1026.8
20260502033932 50 327 0.0 0.0 0.00 0.00 0.00 69 1026.8
20260502033429 50 327 0.0 0.0 0.00 0.00 0.00 69 1026.8
20260502032943 50 327 0.0 0.0 0.00 0.00 0.00 69 1026.8
20260502032430 50 327 0.0 0.0 0.00 0.00 0.00 69 1026.8
20260502032004 50 327 0.0 0.0 0.00 0.00 0.00 69 1026.8
20260502031438 50 327 0.0 0.0 0.00 0.00 0.00 68 1026.8
20260502030945 50 327 0.0 0.0 0.00 0.00 0.00 68 1026.7
20260502030440 51 327 0.0 0.0 0.00 0.00 0.00 68 1026.8
20260502025928 51 327 0.0 0.0 0.00 0.00 0.00 68 1026.8
20260502025444 51 327 0.0 0.0 0.00 0.00 0.00 68 1026.8
20260502024933 51 327 0.0 0.0 0.00 0.00 0.00 67 1026.8
20260502024430 51 327 0.0 0.0 0.00 0.00 0.00 66 1026.8
20260502023943 51 327 0.0 0.0 0.00 0.00 0.00 66 1026.8
20260502023431 51 327 0.0 0.0 0.00 0.00 0.00 66 1026.8
20260502022944 51 327 0.0 0.0 0.00 0.00 0.00 65 1026.8
20260502022459 52 327 0.0 0.0 0.00 0.00 0.00 65 1026.8
20260502021941 52 327 0.0 0.0 0.00 0.00 0.00 65 1026.8
20260502021436 52 327 0.0 0.0 0.00 0.00 0.00 64 1026.8
20260502020952 52 327 0.0 0.0 0.00 0.00 0.00 65 1026.8
20260502020442 52 327 0.0 0.0 0.00 0.00 0.00 64 1026.8
20260502015937 52 327 0.0 0.0 0.00 0.00 0.00 64 1026.8
20260502015444 52 327 0.0 0.0 0.00 0.00 0.00 64 1026.8
20260502014939 52 327 0.0 0.0 0.00 0.00 0.00 63 1026.8
20260502014436 52 327 0.0 0.0 0.00 0.00 0.00 63 1026.8
20260502013926 53 327 0.0 0.0 0.00 0.00 0.00 63 1026.8
20260502013441 53 327 0.0 0.0 0.00 0.00 0.00 62 1026.8
20260502012928 53 327 0.0 0.0 0.00 0.00 0.00 63 1026.8
20260502012426 53 327 0.0 0.0 0.00 0.00 0.00 62 1026.8
20260502011942 53 327 0.0 2.0 0.00 0.00 0.00 62 1026.8
20260502011432 53 327 0.0 2.0 0.00 0.00 0.00 61 1026.7
20260502010949 53 327 0.0 2.0 0.00 0.00 0.00 61 1026.8
20260502010436 53 325 0.0 0.0 0.00 0.00 0.00 60 1026.8
20260502005928 53 325 0.0 0.0 0.00 0.00 0.00 60 1026.8
20260502005435 54 325 0.0 0.0 0.00 0.00 0.00 59 1026.8
20260502004931 54 325 0.0 0.0 0.00 0.00 0.00 59 1026.9
20260502004445 54 325 0.0 0.0 0.00 0.00 0.00 58 1026.9
20260502003935 54 325 0.0 0.0 0.00 0.00 0.00 58 1026.8
20260502003429 54 325 0.0 1.0 0.00 0.00 0.00 57 1026.8
20260502003006 54 325 0.0 1.0 0.00 0.00 0.00 56 1026.8
20260502002441 54 325 0.0 1.0 0.00 0.00 0.00 56 1026.9
20260502001930 54 325 0.0 1.0 0.00 0.00 0.00 56 1026.9
20260502001443 55 325 0.0 0.0 0.00 0.00 0.00 55 1027.0
20260502000933 55 325 0.0 0.0 0.00 0.00 0.00 55 1027.0
20260502000441 55 325 0.0 1.0 0.00 0.00 0.00 54 1027.0
20260501235938 55 325 0.0 2.0 0.00 0.00 0.00 54 1026.9
20260501235452 55 325 0.0 2.0 0.00 0.00 0.00 54 1026.9
20260501235000 55 325 0.0 1.0 0.00 0.00 0.00 54 1026.9
20260501234435 55 325 0.0 1.0 0.00 0.00 0.00 54 1026.9
20260501233949 55 325 0.0 0.0 0.00 0.00 0.00 54 1027.0
20260501233436 55 325 0.0 0.0 0.00 0.00 0.00 53 1026.9
20260501232930 55 325 0.0 1.0 0.00 0.00 0.00 53 1026.9
20260501232446 55 325 0.0 1.0 0.00 0.00 0.00 52 1026.9
20260501231955 56 325 0.0 1.0 0.00 0.00 0.00 52 1027.0
20260501231448 56 325 0.0 1.0 0.00 0.00 0.00 52 1026.9
20260501230941 56 325 0.0 0.0 0.00 0.00 0.00 51 1026.9
20260501230439 57 325 0.0 0.0 0.00 0.00 0.00 51 1026.9
20260501225926 57 325 0.0 4.0 0.00 0.00 0.00 49 1026.9
20260501225443 57 325 1.0 4.0 0.00 0.00 0.00 48 1026.9
20260501224931 58 323 1.0 3.0 0.00 0.00 0.00 46 1026.8
20260501224425 58 257 0.0 1.0 0.00 0.00 0.00 46 1026.8
20260501223932 58 254 0.0 0.0 0.00 0.00 0.00 45 1026.8
20260501223429 58 254 0.0 0.0 0.00 0.00 0.00 45 1026.8
20260501222944 58 254 0.0 1.0 0.00 0.00 0.00 45 1026.8
20260501222433 59 253 0.0 1.0 0.00 0.00 0.00 45 1026.7
20260501221944 59 253 0.0 2.0 0.00 0.00 0.00 45 1026.7
20260501221434 59 254 1.0 2.0 0.00 0.00 0.00 45 1026.7
20260501220931 59 254 1.0 2.0 0.00 0.00 0.00 44 1026.7
20260501220436 59 254 1.0 3.0 0.00 0.00 0.00 44 1026.7
20260501215934 59 254 2.0 3.0 0.00 0.00 0.00 44 1026.6
20260501215446 59 257 1.0 4.0 0.00 0.00 0.00 44 1026.6
20260501214935 59 257 2.0 5.0 0.00 0.00 0.00 43 1026.6
20260501214431 59 241 2.0 5.0 0.00 0.00 0.00 43 1026.5
20260501213938 59 234 1.0 3.0 0.00 0.00 0.00 44 1026.5
20260501213433 59 245 1.0 2.0 0.00 0.00 0.00 45 1026.5
20260501212948 59 245 0.0 1.0 0.00 0.00 0.00 45 1026.5
20260501212434 59 245 0.0 1.0 0.00 0.00 0.00 45 1026.5
20260501211933 59 245 0.0 2.0 0.00 0.00 0.00 45 1026.4
20260501211441 59 245 1.0 3.0 0.00 0.00 0.00 44 1026.4
20260501210933 60 245 1.0 3.0 0.00 0.00 0.00 44 1026.4
20260501210448 60 245 1.0 3.0 0.00 0.00 0.00 44 1026.3
20260501205934 60 245 0.0 4.0 0.00 0.00 0.00 44 1026.2
20260501205430 60 245 1.0 4.0 0.00 0.00 0.00 44 1026.2
20260501204942 60 246 1.0 2.0 0.00 0.00 0.00 43 1026.2